Powrót do katalogu

ATLAS F R/B

AktywnyHEO
NORAD 11142·ROCKET BODY·🇺🇸 United States

Wystrzelony Dec 11, 1978 z Vandenberg Space Force Base

Loading…

Następne Przeloty (najbliższe 24 godziny)

TLE

ŚwieżeSource: Space-Track

Epoka: Sep 5, 2026, 22:28 UTC

1 11142U 78112B   26248.93616482 -.00000009  00000-0  00000-0 0  9999
2 11142  64.2573 102.4164 4653680 245.9118  59.4412  5.34624786919995

Śledź ATLAS F R/B w czasie rzeczywistym z AllMySat

Download on the App Store